Regional Weather Roundup
Issued by NWS

Home | Current Version | Previous Version | Graphics & Text | Print | Product List | Glossary On
Versions: 1 2 3 4 5 6 7 8 9 10 11 12 13 14 15 16 17 18 19 20 21 22 23 24 25 26 27 28 29 30 31 32 33 34 35 36 37 38 39 40 41 42 43 44 45 46 47 48 49 50
000
ASUS43 KFSD 301710
RWRSD

WEATHER ROUNDUP FOR SOUTH DAKOTA
NATIONAL WEATHER SERVICE SIOUX FALLS SD
1200 PM CDT FRI SEP 30 2016

NOTE: "FAIR" INDICATES FEW OR NO CLOUDS BELOW 12,000 FEET WITH NO
SIGNIFICANT WEATHER AND/OR OBSTRUCTIONS TO VISIBILITY.


SDZ001>005-009-010-012>017-301800-
NORTHWEST AND NORTH CENTRAL SOUTH DAKOTA

CITY           SKY/WX    TMP DP  RH WIND       PRES   REMARKS
BUFFALO          N/A     63  45  51 SE15      30.00F
FAITH            N/A     62  45  53 S21       30.08S
MOBRIDGE       MOSUNNY   67  47  48 S23G30    30.13F
$$

SDZ012>016-024>037-041>051-057-063-072>074-301800-
SOUTHWEST AND SOUTH CENTRAL SOUTH DAKOTA

CITY           SKY/WX    TMP DP  RH WIND       PRES   REMARKS
RAPID CTY ARPT PTSUNNY   62  45  53 S16       30.08S
PIERRE         PTSUNNY   65  47  52 SE23      30.15F
CUSTER         CLOUDY    69  46  43 SW13G18   30.19S
ELLSWORTH AFB  CLOUDY    62  46  55 S10       30.06S
PHILIP         CLOUDY    66  47  50 S15       30.11F
PINE RIDGE     CLOUDY    62  44  51 S9        30.14S
WINNER         FAIR      65  48  54 S16       30.22F
$$

SDZ004>011-016>023-039-040-301800-
NORTHEAST SOUTH DAKOTA

CITY           SKY/WX    TMP DP  RH WIND       PRES   REMARKS
ABERDEEN       PTSUNNY   67  47  48 S16       30.26F
WATERTOWN      MOSUNNY   64  48  56 S13       30.30F
BROOKINGS      SUNNY     65  51  60 S12       30.30
SISSETON         N/A     64  52  64 SE12      30.29F
$$

SDZ017-020-022-023-036>040-048>070-301800-
SOUTHEAST SOUTH DAKOTA

CITY           SKY/WX    TMP DP  RH WIND       PRES   REMARKS
SIOUX FALLS    MOSUNNY   67  52  58 SE7       30.30F
HURON          MOSUNNY   65  47  52 S10       30.26F
CHAMBERLAIN    SUNNY     69  51  52 S14       30.24S
MITCHELL       SUNNY     69  46  43 S14       30.27F
YANKTON        SUNNY     64  52  63 E8        30.27F
$$

ABBREVIATIONS USED IN REMARKS
   TC - TEMPERATURE IN CELSIUS
  WCI - WIND CHILL INDEX
   HX - HEAT INDEX
  VSB - VISIBILITY




USA.gov is the U.S. government's official web portal to all federal, state and local government web resources and services.